Flag for Greece Weather past 2 weeks in Peristeri, Greece

Now
91 °F

Sunny.


Feels Like: 90 °F
Forecast: 65 / 77 °F
Wind: 15 mph from Northwest

Location: Elefsis Airport

Current Time: Sep 23, 2014 at 4:16:36 PM

Latest Report: Sep 23, 2014 at 3:20 PM


Visibility: 10 mi

Pressure: 29.71 "Hg

Humidity: 32%

Dew point: 57 °F

Location of PeristeriLocation

Historic Weather in Peristeri — Graph

°F

Peristeri temperature yesterday

Maximum temperature yesterday: 95 °F (at 3:20 PM)
Minimum temperature yesterday: 72 °F (at 6:20 AM)
Average temperature yesterday: 82 °F

Past Weeks' High & Low Weather Summary

 TemperatureHumidityPressure
High95 °F (Sep 22, 3:20 PM)88% (Sep 9, 6:20 PM)30.18 "Hg (Sep 9, 6:20 PM)
Low64 °F (Sep 11, 5:50 AM)23% (Sep 22, 3:20 PM)29.71 "Hg (Sep 23, 11:20 AM)
Average77 °F58%29.93 "Hg
* Reported Sep 8 2:20 PM — Sep 23 2:50 PM, Peristeri, Weather by CustomWeather, © 2014

Note: Actual official high and low records may vary slightly from our data, if they occured in-between our weather recording intervals... More about our weather records

Advertising

Peristeri weather history for previous 24 hours

 ConditionsComfort  
Time TempWeatherWind HumidityBarometerVisibility
2:50 PM
Sep 23
93 °FSunny.18 mph30%29.71 "Hg10 mi
2:20 PM93 °FPassing clouds.12 mph30%29.74 "HgN/A
1:50 PM93 °FSunny.9 mph26%29.71 "Hg10 mi
12:50 PM91 °FSunny.6 mph28%29.71 "Hg10 mi
12:20 PM88 °FSunny.No wind35%29.71 "Hg10 mi
11:50 AM86 °FSunny.7 mph40%29.71 "Hg10 mi
11:20 AM86 °FSunny.7 mph38%29.71 "Hg10 mi
10:50 AM86 °FSunny.No wind38%29.74 "Hg10 mi
10:20 AM84 °FSunny.No wind43%29.74 "Hg10 mi
9:50 AM82 °FSunny.No wind51%29.74 "Hg10 mi
9:20 AM79 °FSunny.No wind58%29.74 "Hg10 mi
8:50 AM77 °FSunny.No wind65%29.74 "Hg10 mi
8:20 AM73 °FSunny.No wind74%29.74 "Hg10 mi
7:50 AM73 °FClear.No wind74%29.74 "Hg10 mi
7:20 AM73 °FClear.No wind74%29.74 "Hg10 mi
6:50 AM73 °FClear.No wind74%29.74 "Hg10 mi
5:50 AM75 °FClear.No wind69%29.77 "Hg10 mi
5:20 AM75 °FClear.No wind69%29.77 "Hg10 mi
4:50 AM79 °FClear.6 mph58%29.77 "Hg10 mi
3:50 AM79 °FClear.No wind61%29.77 "Hg10 mi
3:20 AM79 °FClear.6 mph61%29.77 "Hg10 mi
2:50 AM81 °FClear.9 mph54%29.77 "Hg10 mi
2:20 AM77 °FClear.No wind61%29.77 "Hg10 mi
1:50 AM79 °FClear.No wind58%29.77 "Hg10 mi
12:50 AM81 °FClear.No wind51%29.77 "Hg10 mi
12:20 AM82 °FClear.No wind48%29.80 "Hg10 mi
11:50 PM
Sep 22
84 °FClear.6 mph40%29.80 "Hg10 mi
11:20 PM84 °FClear.9 mph40%29.80 "Hg10 mi
10:50 PM84 °FClear.12 mph40%29.77 "Hg10 mi
10:20 PM86 °FClear.14 mph35%29.77 "Hg10 mi
9:50 PM86 °FClear.13 mph35%29.77 "Hg10 mi
9:20 PM86 °FClear.14 mph35%29.77 "Hg10 mi
8:50 PM84 °FClear.6 mph43%29.77 "Hg10 mi
8:20 PM84 °FSunny.No wind45%29.74 "Hg10 mi
7:50 PM84 °FSunny.7 mph45%29.74 "Hg10 mi
7:20 PM84 °FSunny.14 mph45%29.74 "Hg10 mi
6:50 PM86 °FPassing clouds.14 mph43%29.74 "HgN/A
6:20 PM88 °FPassing clouds.14 mph38%29.77 "HgN/A
5:50 PM90 °FPassing clouds.14 mph36%29.77 "HgN/A
5:20 PM90 °FPassing clouds.7 mph38%29.77 "HgN/A
4:50 PM90 °FPassing clouds.8 mph36%29.77 "HgN/A
4:20 PM90 °FPassing clouds.7 mph33%29.77 "HgN/A
Weather by CustomWeather, © 2014

See weather overviewHow to use our weather pages